Dades meteomassalio
Diari Summary for Nil La, TWC- Units:  English    Metric   Both
« Previous Day
Next Day »
Diari Semanal Mensual Anual Personalitzat
  Maxima: Minima: Mijana:
Temperatura: TemperatureC °F -6.1 °F -4.3 °F
Rosada: DewpointC °F -7.6 °F -6.1 °F
Humitat: Humidity % 82 % 86 %
Velocitat del vent: WindSpeedKMH mph 0.0 mph 0 mph
Racha vent: WindSpeedGustKMH mph - -
Vent:- - North
Pressio: PressurehPa in 1010.7 in -
Pluja: 0.0 in    
Historical Graphs
 
 
Tabular Data for Nil La, TWC-
Time Temperature Dew Point Pressure Wind Wind Speed Wind Gust Humidity Rainfall Rate (Hourly) solar Conditions
TemperatureC °F DewpointC °F PressurehPa in Calm     Humidity % HourlyPrecipMM in SolarRadiationWatts/m^2 W/m2 Conditions
00:00 -2.8 °F -5.3 °F 1011.1 in Calm     83 % 0.0 in 0.0 W/m2 CLR
00:05 -3.3 °F -5.8 °F 1011.1 in Calm     83 % 0.0 in 0.0 W/m2 CLR
00:10 -3.3 °F -5.9 °F 1011.1 in Calm     82 % 0.0 in 0.0 W/m2 CLR
00:15 -3.3 °F -5.9 °F 1011.1 in Calm     82 % 0.0 in 0.0 W/m2 CLR
00:20 -2.8 °F -5.3 °F 1011.1 in Calm     83 % 0.0 in 0.0 W/m2 CLR
00:25 -2.8 °F -5.3 °F 1011.1 in Calm     83 % 0.0 in 0.0 W/m2 CLR
00:30 -2.8 °F -5.1 °F 1011.1 in Calm     84 % 0.0 in 0.0 W/m2 CLR
00:35 -2.8 °F -5.1 °F 1011.1 in Calm     84 % 0.0 in 0.0 W/m2 CLR
00:40 -2.8 °F -5.1 °F 1011.1 in Calm     84 % 0.0 in 0.0 W/m2 CLR
00:45 -2.8 °F -5.1 °F 1010.7 in Calm     84 % 0.0 in 0.0 W/m2 CLR
00:50 -2.8 °F -4.9 °F 1011.1 in Calm     85 % 0.0 in 0.0 W/m2 CLR
00:55 -2.8 °F -4.9 °F 1011.1 in Calm     85 % 0.0 in 0.0 W/m2 CLR
01:00 -2.8 °F -4.9 °F 1011.1 in Calm     85 % 0.0 in 0.0 W/m2 CLR
01:05 -2.8 °F -4.9 °F 1011.1 in Calm     85 % 0.0 in 0.0 W/m2 CLR
01:10 -2.8 °F -5.1 °F 1011.1 in Calm     84 % 0.0 in 0.0 W/m2 CLR
01:15 -3.3 °F -5.5 °F 1011.1 in Calm     85 % 0.0 in 0.0 W/m2 CLR
01:20 -3.3 °F -5.5 °F 1011.1 in Calm     85 % 0.0 in 0.0 W/m2 CLR
01:25 -3.3 °F -5.5 °F 1011.1 in Calm     85 % 0.0 in 0.0 W/m2 CLR
01:30 -3.3 °F -5.5 °F 1011.1 in Calm     85 % 0.0 in 0.0 W/m2 CLR
01:35 -3.3 °F -5.3 °F 1011.1 in Calm     86 % 0.0 in 0.0 W/m2 CLR
01:40 -3.3 °F -5.3 °F 1011.1 in Calm     86 % 0.0 in 0.0 W/m2 CLR
01:45 -3.9 °F -5.9 °F 1011.1 in Calm     86 % 0.0 in 0.0 W/m2 CLR
01:50 -3.9 °F -5.9 °F 1011.4 in Calm     86 % 0.0 in 0.0 W/m2 CLR
01:55 -3.9 °F -5.9 °F 1011.4 in Calm     86 % 0.0 in 0.0 W/m2 CLR
02:00 -3.9 °F -5.9 °F 1011.4 in Calm     86 % 0.0 in 0.0 W/m2 CLR
02:05 -3.9 °F -5.9 °F 1011.4 in Calm     86 % 0.0 in 0.0 W/m2 CLR
02:10 -3.9 °F -5.7 °F 1011.1 in Calm     87 % 0.0 in 0.0 W/m2 CLR
02:15 -3.9 °F -5.7 °F 1011.1 in Calm     87 % 0.0 in 0.0 W/m2 CLR
02:20 -3.9 °F -5.7 °F 1011.1 in Calm     87 % 0.0 in 0.0 W/m2 CLR
02:25 -3.9 °F -5.7 °F 1011.1 in Calm     87 % 0.0 in 0.0 W/m2 CLR
02:30 -4.4 °F -6.3 °F 1011.1 in Calm     87 % 0.0 in 0.0 W/m2 CLR
02:35 -4.4 °F -6.3 °F 1011.4 in Calm     87 % 0.0 in 0.0 W/m2 CLR
02:40 -4.4 °F -6.1 °F 1011.1 in Calm     88 % 0.0 in 0.0 W/m2 CLR
02:45 -4.4 °F -6.3 °F 1011.4 in Calm     87 % 0.0 in 0.0 W/m2 CLR
02:50 -4.4 °F -6.3 °F 1011.4 in Calm     87 % 0.0 in 0.0 W/m2 CLR
02:55 -4.4 °F -6.3 °F 1011.4 in Calm     87 % 0.0 in 0.0 W/m2 CLR
03:00 -4.4 °F -6.3 °F 1011.4 in Calm     87 % 0.0 in 0.0 W/m2 CLR
03:05 -4.4 °F -6.3 °F 1011.4 in Calm     87 % 0.0 in 0.0 W/m2 CLR
03:10 -4.4 °F -6.3 °F 1011.4 in Calm     87 % 0.0 in 0.0 W/m2 CLR
03:15 -4.4 °F -6.1 °F 1011.4 in Calm     88 % 0.0 in 0.0 W/m2 CLR
03:20 -4.4 °F -6.1 °F 1011.4 in Calm     88 % 0.0 in 0.0 W/m2 CLR
03:25 -4.4 °F -6.1 °F 1011.4 in Calm     88 % 0.0 in 0.0 W/m2 CLR
03:30 -4.4 °F -6.1 °F 1011.4 in Calm     88 % 0.0 in 0.0 W/m2 CLR
03:35 -4.4 °F -6.1 °F 1011.4 in Calm     88 % 0.0 in 0.0 W/m2 CLR
03:40 -4.4 °F -6.1 °F 1011.4 in Calm     88 % 0.0 in 0.0 W/m2 CLR
03:45 -4.4 °F -6.1 °F 1011.4 in Calm     88 % 0.0 in 0.0 W/m2 CLR
03:50 -4.4 °F -6.1 °F 1011.4 in Calm     88 % 0.0 in 0.0 W/m2 CLR
03:55 -4.4 °F -6.1 °F 1011.4 in Calm     88 % 0.0 in 0.0 W/m2 CLR
04:00 -4.4 °F -6.1 °F 1011.4 in Calm     88 % 0.0 in 0.0 W/m2 CLR
04:06 -4.4 °F -6.1 °F 1011.4 in Calm     88 % 0.0 in 0.0 W/m2 CLR
04:11 -4.4 °F -6.1 °F 1011.4 in Calm     88 % 0.0 in 0.0 W/m2 CLR
04:15 -4.4 °F -6.0 °F 1011.4 in Calm     89 % 0.0 in 0.0 W/m2 CLR
04:20 -3.9 °F -5.6 °F 1011.4 in Calm     88 % 0.0 in 0.0 W/m2 CLR
04:25 -3.9 °F -5.4 °F 1011.4 in Calm     89 % 0.0 in 0.0 W/m2 CLR
04:30 -4.4 °F -6.0 °F 1011.1 in Calm     89 % 0.0 in 0.0 W/m2 CLR
04:36 -4.4 °F -6.0 °F 1011.1 in Calm     89 % 0.0 in 0.0 W/m2 CLR
04:41 -4.4 °F -6.0 °F 1011.1 in Calm     89 % 0.0 in 0.0 W/m2 CLR
04:46 -4.4 °F -6.0 °F 1011.1 in Calm     89 % 0.0 in 0.0 W/m2 CLR
04:51 -4.4 °F -6.0 °F 1011.1 in Calm     89 % 0.0 in 0.0 W/m2 CLR
04:56 -4.4 °F -6.0 °F 1011.1 in Calm     89 % 0.0 in 0.0 W/m2 CLR
05:01 -5.0 °F -6.6 °F 1011.1 in Calm     89 % 0.0 in 0.0 W/m2 CLR
05:06 -5.0 °F -6.4 °F 1011.1 in Calm     90 % 0.0 in 0.0 W/m2 CLR
05:11 -5.0 °F -6.6 °F 1011.4 in Calm     89 % 0.0 in 0.0 W/m2 CLR
05:16 -5.0 °F -6.6 °F 1011.4 in Calm     89 % 0.0 in 0.0 W/m2 CLR
05:21 -5.0 °F -6.6 °F 1011.1 in Calm     89 % 0.0 in 0.0 W/m2 CLR
05:26 -5.0 °F -6.6 °F 1011.1 in Calm     89 % 0.0 in 0.0 W/m2 CLR
05:31 -5.6 °F -7.1 °F 1011.1 in Calm     89 % 0.0 in 0.0 W/m2 CLR
05:36 -5.6 °F -7.1 °F 1011.1 in Calm     89 % 0.0 in 0.0 W/m2 CLR
05:41 -5.6 °F -7.1 °F 1011.1 in Calm     89 % 0.0 in 0.0 W/m2 CLR
05:46 -5.6 °F -7.1 °F 1011.1 in Calm     89 % 0.0 in 0.0 W/m2 CLR
05:51 -5.6 °F -6.9 °F 1011.1 in Calm     90 % 0.0 in 0.0 W/m2 CLR
05:56 -5.6 °F -6.9 °F 1011.1 in Calm     90 % 0.0 in 0.0 W/m2 CLR
06:01 -5.6 °F -7.1 °F 1011.4 in Calm     89 % 0.0 in 0.0 W/m2 CLR
06:06 -5.6 °F -7.1 °F 1011.1 in Calm     89 % 0.0 in 0.0 W/m2 CLR
06:11 -5.6 °F -6.9 °F 1011.1 in Calm     90 % 0.0 in 0.0 W/m2 CLR
06:16 -5.6 °F -6.9 °F 1011.1 in Calm     90 % 0.0 in 0.0 W/m2 CLR
06:21 -5.6 °F -6.9 °F 1011.1 in Calm     90 % 0.0 in 0.0 W/m2 CLR
06:26 -5.6 °F -6.9 °F 1011.4 in Calm     90 % 0.0 in 0.0 W/m2 CLR
06:31 -5.6 °F -7.1 °F 1011.4 in Calm     89 % 0.0 in 0.0 W/m2 CLR
06:36 -6.1 °F -7.5 °F 1011.4 in Calm     90 % 0.0 in 0.0 W/m2 CLR
06:41 -6.1 °F -7.6 °F 1011.4 in Calm     89 % 0.0 in 0.0 W/m2 CLR
06:46 -5.6 °F -6.9 °F 1011.4 in Calm     90 % 0.0 in 0.0 W/m2 CLR
06:51 -5.6 °F -7.1 °F 1011.4 in Calm     89 % 0.0 in 0.0 W/m2 CLR
06:56 -5.6 °F -6.9 °F 1011.4 in Calm     90 % 0.0 in 0.0 W/m2 CLR
07:01 -5.6 °F -6.9 °F 1011.4 in Calm     90 % 0.0 in 0.0 W/m2 CLR
07:06 -6.1 °F -7.5 °F 1011.4 in Calm     90 % 0.0 in 0.0 W/m2 CLR
Lo Temps de Massalio
Compliments of Weather Underground - 512 kb